Time_in_sec,Mx,My,Mz
1323442280.70456791,-0.57999021,0.11943784,-0.85248286
1323442280.75267720,-0.58165032,0.11738408,-0.85204566
1323442280.80446005,-0.58032155,0.11872543,-0.85378140
1323442280.85350561,-0.58002579,0.11725923,-0.85336894
1323442280.90460038,-0.58125550,0.12143317,-0.85603756
1323442280.96462178,-0.58125925,0.12031763,-0.85397315
1323442281.00458813,-0.58273154,0.11667328,-0.85274297
1323442281.05357480,-0.58256131,0.11705217,-0.85427868
1323442281.10452223,-0.58101451,0.12068232,-0.85421938
1323442281.15258670,-0.58101475,0.11873978,-0.85446250
1323442281.20151663,-0.58231270,0.11887305,-0.85427803
1323442281.25446939,-0.58193779,0.11838661,-0.85463947
1323442281.30266857,-0.58189207,0.11922777,-0.85374326
1323442281.35360909,-0.58177233,0.11680028,-0.85423332
1323442281.40462732,-0.58163607,0.12070659,-0.85592484
1323442281.45357943,-0.58164644,0.11947089,-0.85398847
1323442281.50452948,-0.58054096,0.12056487,-0.85509211
1323442281.55333757,-0.58311307,0.11669890,-0.85482079
1323442281.60149121,-0.58113939,0.11949202,-0.85653132
1323442281.65255117,-0.58071238,0.11836502,-0.85380042
1323442281.70464420,-0.58206886,0.11935934,-0.85452515
1323442281.76553202,-0.58086509,0.11727788,-0.85431516
1323442281.80464292,-0.58113474,0.11859412,-0.85202587
1323442281.85320663,-0.58125293,0.11849526,-0.85408825
1323442281.90150952,-0.58046293,0.11909305,-0.85392040
1323442281.95558476,-0.58126688,0.11837651,-0.85434526
1323442282.00573325,-0.58021075,0.12008695,-0.85622722
1323442282.05261493,-0.58169490,0.11836386,-0.85269785
1323442282.10155582,-0.58083773,0.12055077,-0.85343742
1323442282.15252161,-0.58397257,0.11876183,-0.85359776
1323442282.20450592,-0.58110875,0.11839348,-0.85613614
1323442282.25357437,-0.58120090,0.11751405,-0.85330713
1323442282.30173135,-0.58004689,0.12005571,-0.85339016
1323442282.35352993,-0.58221424,0.11666889,-0.85284287
1323442282.40701270,-0.58140278,0.11801463,-0.85447872
1323442282.45354390,-0.58139229,0.11993164,-0.85179263
1323442282.50155926,-0.58214784,0.12032212,-0.85350817
1323442282.55530262,-0.58158326,0.11800192,-0.85307467
1323442282.60151839,-0.58043110,0.12078674,-0.85315961
1323442282.65358305,-0.58054096,0.11993425,-0.85290247
1323442282.70493102,-0.58081466,0.11911300,-0.85548240
1323442282.75262380,-0.58218080,0.11617686,-0.85232335
1323442282.80148411,-0.58065540,0.12032031,-0.85483956
1323442282.85296679,-0.58161467,0.12082392,-0.85553885
1323442282.90150476,-0.58026648,0.12029327,-0.85263282
1323442282.95350909,-0.58159906,0.11812634,-0.85333353
1323442283.00566459,-0.58139503,0.12092701,-0.85398507
1323442283.05350423,-0.58153307,0.11726388,-0.85229540
1323442283.10479379,-0.58190137,0.11947237,-0.85387403
1323442283.15390849,-0.58286530,0.11961264,-0.85469949
1323442283.20188427,-0.58145475,0.11933649,-0.85294867
1323442283.25360441,-0.58079052,0.11760434,-0.85071439
1323442283.30559182,-0.58074468,0.12067800,-0.85407585
1323442283.35358930,-0.58222067,0.11751999,-0.85284936
1323442283.40565348,-0.58020514,0.11969808,-0.85391051
1323442283.45351267,-0.58172816,0.12079843,-0.85297424
1323442283.50467348,-0.58236647,0.12106871,-0.85493946
1323442283.56465292,-0.58173120,0.11824938,-0.85334170
1323442283.60849953,-0.58077735,0.11944655,-0.85252643
1323442283.65256548,-0.58040893,0.11947056,-0.85520548
1323442283.71252728,-0.58043790,0.11838338,-0.85584193
1323442283.75355649,-0.58021259,0.11969950,-0.85403943
1323442283.80453539,-0.58039784,0.11898279,-0.85507280
1323442283.85370207,-0.58086497,0.11824915,-0.85419363
1323442283.90156269,-0.58236837,0.11970999,-0.85287327
1323442283.96462417,-0.58122396,0.11958244,-0.85345179
1323442284.00149202,-0.58172464,0.11836954,-0.85321367
1323442284.05271029,-0.58224767,0.11716091,-0.85336244
1323442284.11255097,-0.58000690,0.11968385,-0.85274261
1323442284.16135883,-0.58090580,0.11971387,-0.85472053
1323442284.20154834,-0.58038110,0.11873678,-0.85481304
1323442284.25351691,-0.58127546,0.11592636,-0.85252863
1323442284.31349301,-0.58150887,0.11827768,-0.85628593
1323442284.35259533,-0.58115786,0.12032185,-0.85448176
1323442284.40301347,-0.58004528,0.11787000,-0.85363144
1323442284.45261931,-0.58126307,0.11920209,-0.85190880
1323442284.50452161,-0.58112615,0.12104428,-0.85384250
1323442284.56155777,-0.58256966,0.11654456,-0.85221893
1323442284.60456586,-0.58088434,0.11920057,-0.85214496
1323442284.65360355,-0.58080161,0.11872271,-0.85303670
1323442284.70151353,-0.58187705,0.12019621,-0.85336375
1323442284.75357199,-0.58232385,0.11809959,-0.85003144
1323442284.80151868,-0.58080900,0.11969540,-0.85304409
1323442284.85355854,-0.58098382,0.11992444,-0.85151297
1323442284.90524316,-0.58081907,0.12040224,-0.85086459
1323442284.95383048,-0.58151138,0.12029501,-0.85154474
1323442285.00566769,-0.58148986,0.12138361,-0.85103726
1323442285.05362988,-0.58258986,0.11858884,-0.85004967
1323442285.10454297,-0.58163971,0.12090298,-0.85142767
1323442285.16154075,-0.58155143,0.11969560,-0.85231388
1323442285.20149350,-0.58079034,0.11954688,-0.85047126
1323442285.25356078,-0.58270442,0.11800363,-0.85210836
1323442285.30511069,-0.58102298,0.11920345,-0.85228115
1323442285.35262775,-0.58044338,0.11819232,-0.84915704
1323442285.40165734,-0.58027208,0.12005151,-0.85275990
1323442285.45256615,-0.58155239,0.11981719,-0.85231483
1323442285.50555086,-0.58006078,0.12027761,-0.85133600
1323442285.55282784,-0.58237320,0.11774477,-0.85093135
1323442285.60444403,-0.58158380,0.12200858,-0.85258937
1323442285.65363574,-0.58012968,0.11990295,-0.85030878
1323442285.70099592,-0.58166212,0.11993597,-0.85193610
1323442285.76080608,-0.58027023,0.11917773,-0.85056841
1323442285.80164766,-0.58136833,0.11774167,-0.85164708
1323442285.86149049,-0.58129376,0.11932936,-0.85242558
1323442285.90151119,-0.58160365,0.11873427,-0.85333812
1323442285.96165252,-0.58065760,0.11701906,-0.85301650
1323442286.00151587,-0.58241248,0.11605250,-0.85182112
1323442286.05293536,-0.58278358,0.11765449,-0.85352409
1323442286.10153031,-0.58101010,0.11813185,-0.85445786
1323442286.15357327,-0.58049649,0.11798319,-0.85237187
1323442286.20154500,-0.58128822,0.11923046,-0.85460967
1323442286.26079464,-0.58120263,0.11872849,-0.85318744
1323442286.30454731,-0.58095884,0.11858416,-0.85124487
1323442286.35358310,-0.58224303,0.11752425,-0.85323626
1323442286.40550876,-0.57937247,0.11921860,-0.85540348
1323442286.45271492,-0.58035409,0.11909586,-0.85430002
1323442286.51263213,-0.58232003,0.11984575,-0.85428548
1323442286.56154084,-0.58020306,0.12202806,-0.85585517
1323442286.61263895,-0.57996887,0.11921451,-0.85440809
1323442286.66155338,-0.58006865,0.11702457,-0.85414082
1323442286.71355915,-0.58117312,0.11643962,-0.85522592
1323442286.76465678,-0.58047420,0.11826889,-0.85648578
1323442286.80152678,-0.58063817,0.11543702,-0.85287553
1323442286.85256410,-0.58121771,0.11741941,-0.85587811
1323442286.90565085,-0.58138603,0.11839923,-0.85640860
1323442286.95355678,-0.58087057,0.11800739,-0.85432070
1323442287.00458312,-0.58073366,0.11984958,-0.85625440
1323442287.05252028,-0.58214897,0.11850116,-0.85375220
1323442287.10149360,-0.58154684,0.11971828,-0.85449892
1323442287.15251875,-0.57948869,0.11955787,-0.85284162
1323442287.20155478,-0.58064991,0.11959079,-0.85483402
1323442287.25252366,-0.58008331,0.11896995,-0.85415560
1323442287.31253147,-0.57961518,0.12055328,-0.85491234
1323442287.35252333,-0.58038837,0.12005012,-0.85250926
1323442287.40123343,-0.57996505,0.11969943,-0.85428286
1323442287.45352650,-0.58138025,0.11995290,-0.85384870
1323442287.50152469,-0.58069360,0.11981837,-0.85329568
1323442287.55352092,-0.58100742,0.11713648,-0.85226542
1323442287.60149312,-0.57948482,0.12101407,-0.85259479
1323442287.65324569,-0.58093077,0.12042353,-0.85279900
1323442287.70524549,-0.58059967,0.11919341,-0.85174358
1323442287.76489282,-0.58180171,0.11942981,-0.84988362
1323442287.80110288,-0.58047408,0.11831959,-0.84967375
1323442287.85267472,-0.58043414,0.11760708,-0.85133743
1323442287.90511394,-0.58056241,0.11918631,-0.85109878
1323442287.95310187,-0.58164072,0.12005329,-0.85155016
1323442288.00199771,-0.58112878,0.12174969,-0.85153407
1323442288.05407715,-0.58157843,0.11904656,-0.84832609
1323442288.10554075,-0.58044410,0.12088706,-0.85110444
1323442288.15352559,-0.58097649,0.11895175,-0.85150558
1323442288.20466447,-0.58063686,0.11920051,-0.85238832
1323442288.25298142,-0.58151609,0.11930106,-0.84948128
1323442288.30551744,-0.58032972,0.12016036,-0.85147852
1323442288.36181688,-0.57995307,0.11782885,-0.84977001
1323442288.40094495,-0.58074552,0.12050962,-0.84957594
1323442288.45309234,-0.58140445,0.11956972,-0.85204780
1323442288.51354599,-0.57992214,0.12027474,-0.85119975
1323442288.55354762,-0.58063763,0.12063402,-0.84995651
1323442288.61308646,-0.58099586,0.12053379,-0.85164654
1323442288.66157770,-0.58065349,0.11978718,-0.85033691
1323442288.70084620,-0.58194435,0.11700521,-0.85038823
1323442288.76157737,-0.58256197,0.11882634,-0.84953564
1323442288.80149388,-0.58170235,0.11773467,-0.85063714
1323442288.86153960,-0.57940674,0.11954226,-0.85142308
1323442288.91754651,-0.58136457,0.11822660,-0.85152179
1323442288.96151805,-0.58152634,0.11932658,-0.85192424
1323442289.01271796,-0.58132470,0.11688346,-0.85099578
1323442289.06078005,-0.58208662,0.11812505,-0.85271776
1323442289.10074806,-0.58203459,0.11714384,-0.85193664
1323442289.16566229,-0.58090323,0.11677594,-0.85277122
1323442289.21349812,-0.58154047,0.11760595,-0.85011315
1323442289.25355792,-0.58166784,0.11809233,-0.84999514
1323442289.31763363,-0.58043498,0.11933055,-0.85340643
1323442289.36558580,-0.58059323,0.11834230,-0.85173708
1323442289.41276884,-0.58163065,0.11871585,-0.85154003
1323442289.46519947,-0.58327949,0.11777620,-0.85303825
1323442289.51281118,-0.58027595,0.11796471,-0.85081708
1323442289.56555629,-0.58076918,0.11738101,-0.85263968
1323442289.61352921,-0.58257049,0.11763742,-0.85209829
1323442289.66565347,-0.58129305,0.11726523,-0.85266775
1323442289.71355844,-0.58103710,0.11748281,-0.85047007
1323442289.76555777,-0.58064646,0.11653129,-0.85288382
1323442289.81252980,-0.58306652,0.11678786,-0.85173398
1323442289.86150432,-0.58116370,0.11750695,-0.85266232
1323442289.91342831,-0.58239555,0.11837965,-0.85350788
1323442289.96189117,-0.58187830,0.11740398,-0.85372937
1323442290.01351881,-0.58106232,0.11688057,-0.85098130
1323442290.06149864,-0.58057851,0.11702754,-0.85391194
1323442290.11602116,-0.58156562,0.11826493,-0.85500365
1323442290.16458845,-0.58182991,0.11753973,-0.85514158
1323442290.21373796,-0.58188766,0.11667731,-0.85398173
1323442290.26152325,-0.58048069,0.11848938,-0.85430264
1323442290.31386995,-0.58265722,0.11631842,-0.85376459
1323442290.36155128,-0.58119816,0.11777990,-0.85549402
1323442290.41356540,-0.58105481,0.11814037,-0.85523158
1323442290.46127939,-0.58063060,0.11766809,-0.85700428
1323442290.51755166,-0.58114314,0.11837648,-0.85446697
1323442290.56130075,-0.58068275,0.11704742,-0.85571736
1323442290.61288977,-0.58078599,0.11728636,-0.85521060
1323442290.66155243,-0.58098608,0.11691315,-0.85419071
1323442290.71326423,-0.58076078,0.11788861,-0.85469943
1323442290.76153994,-0.58255649,0.11901739,-0.85622060
1323442290.81378245,-0.58213985,0.11631403,-0.85386455
1323442290.86158872,-0.58091903,0.11753099,-0.85521972
1323442290.92156911,-0.58163643,0.11716217,-0.85409987
1323442290.96162033,-0.58226991,0.11876705,-0.85581738
1323442291.01268554,-0.58089769,0.11667705,-0.85495532
1323442291.06150079,-0.58217412,0.11852953,-0.85645306
1323442291.11351347,-0.57962668,0.11715596,-0.85553128
1323442291.16452527,-0.58105677,0.11741228,-0.85535502
1323442291.21352243,-0.58122426,0.11666863,-0.85381651
1323442291.26104403,-0.58066684,0.11852488,-0.85752660
1323442291.31255412,-0.58147264,0.11742089,-0.85576367
1323442291.36581182,-0.57992905,0.11753073,-0.85619330
1323442291.41381788,-0.58110327,0.11766396,-0.85613060
1323442291.46152329,-0.58121383,0.11887560,-0.85563129
1323442291.51253438,-0.58073777,0.11582023,-0.85455471
1323442291.56567407,-0.58102316,0.11852214,-0.85690355
1323442291.61350560,-0.58075994,0.11742637,-0.85700971
1323442291.66568756,-0.58115631,0.11716487,-0.85484457
1323442291.71357942,-0.58213514,0.11730798,-0.85592794
1323442291.76091385,-0.58135545,0.11730069,-0.85601336
1323442291.81279826,-0.58282572,0.11598632,-0.85672784
1323442291.86084127,-0.58100939,0.11669834,-0.85688967
1323442291.91351748,-0.58170342,0.11717495,-0.85526049
1323442291.96473026,-0.58100092,0.11754660,-0.85663825
1323442292.01350784,-0.58049583,0.11557841,-0.85492527
1323442292.06177020,-0.58121765,0.11839068,-0.85575652
1323442292.11263657,-0.58229154,0.11670719,-0.85644644
1323442292.16479325,-0.58025104,0.11691438,-0.85504985
1323442292.21278858,-0.58119172,0.11692880,-0.85548753
1323442292.26552057,-0.57933438,0.11874927,-0.85706896
1323442292.31353450,-0.58271229,0.11411996,-0.85272354
1323442292.36451316,-0.58212018,0.11827642,-0.85554850
1323442292.41268802,-0.58288497,0.11828087,-0.85520518
1323442292.46458459,-0.58132374,0.11802311,-0.85537416
1323442292.51753759,-0.58171469,0.11606082,-0.85332507
1323442292.56539249,-0.58135158,0.11875689,-0.85576653
1323442292.61274147,-0.58156848,0.11765841,-0.85512799
1323442292.66154432,-0.58138514,0.11764703,-0.85421801
1323442292.71360326,-0.58162332,0.11803311,-0.85603344
1323442292.76159596,-0.58066589,0.11840329,-0.85752565
1323442292.81358933,-0.58104849,0.11568739,-0.85315704
1323442292.86154580,-0.58079344,0.11728778,-0.85533959
1323442292.91752028,-0.58066696,0.11692299,-0.85545850
1323442292.95351624,-0.58103627,0.11765119,-0.85496998
1323442293.01274824,-0.58201581,0.11985843,-0.85581118
1323442293.06150031,-0.58168936,0.11826496,-0.85488194
1323442293.11271930,-0.58110684,0.11849096,-0.85382313
1323442293.16458178,-0.58228576,0.11826087,-0.85388654
1323442293.21353412,-0.58002377,0.11895859,-0.85312396
1323442293.26156688,-0.58134967,0.11885437,-0.85345352
1323442293.32153177,-0.58309740,0.11497258,-0.85249388
1323442293.36173105,-0.58127540,0.11752824,-0.85459673
1323442293.41280413,-0.58201396,0.11898464,-0.85361969
1323442293.46150994,-0.58251661,0.11704365,-0.85350496
1323442293.51252484,-0.58305907,0.11678644,-0.85160506
1323442293.56464005,-0.58161110,0.11873569,-0.85346711
1323442293.61572313,-0.58184576,0.11703355,-0.85321075
1323442293.66126847,-0.58237135,0.11813221,-0.85311913
1323442293.71259332,-0.58142608,0.11750986,-0.85267687
1323442293.76520038,-0.58079797,0.11823637,-0.85303301
1323442293.81280065,-0.58412826,0.11546629,-0.85216874
1323442293.86155748,-0.58179444,0.11874708,-0.85437709
1323442293.91270232,-0.58055145,0.11738662,-0.85339886
1323442293.96105266,-0.58186799,0.11800908,-0.85347605
1323442294.01349568,-0.58246356,0.11691213,-0.85260135
1323442294.06152749,-0.58041918,0.11920612,-0.85314757
1323442294.11754775,-0.58134228,0.11788168,-0.85344613
1323442294.16105914,-0.58062124,0.11776416,-0.85456228
1323442294.21365738,-0.58194065,0.11714949,-0.85257417
1323442294.26149344,-0.58208752,0.11824664,-0.85271871
1323442294.31305289,-0.58215660,0.11592943,-0.85193467
1323442294.36553288,-0.58027327,0.11725929,-0.85312551
1323442294.41362333,-0.58012629,0.11713341,-0.85285944
1323442294.46098614,-0.58354741,0.11850862,-0.85305828
1323442294.52153373,-0.58214253,0.11701944,-0.85155612
1323442294.56088161,-0.58180004,0.11787471,-0.85231453
1323442294.61301088,-0.58173782,0.11715794,-0.85359132
1323442294.66095209,-0.58187920,0.11752557,-0.85373026
1323442294.71390963,-0.58193123,0.11787616,-0.85232180
1323442294.76566005,-0.58124000,0.11776432,-0.85395378
1323442294.81352115,-0.58124661,0.11604227,-0.85201371
1323442294.86148763,-0.58037192,0.11689030,-0.85261416
1323442294.91504455,-0.58187628,0.11910335,-0.85348439
1323442294.96349931,-0.58240116,0.11813789,-0.85363495
1323442295.01288152,-0.58114797,0.11578064,-0.85033542
1323442295.06080198,-0.58247459,0.11837116,-0.85261244
1323442295.10866380,-0.58283305,0.11569778,-0.85235596
1323442295.15262461,-0.58253425,0.11741125,-0.85376567
1323442295.21352863,-0.58182424,0.11812215,-0.85270327
1323442295.26471186,-0.58088517,0.12029343,-0.85202432
1323442295.30552292,-0.58116275,0.11675475,-0.85047179
1323442295.36160827,-0.58235848,0.11579939,-0.85091656
1323442295.40455627,-0.58085263,0.11992300,-0.85150570
1323442295.46155763,-0.58276767,0.11850133,-0.85314369
1323442295.50461221,-0.58226341,0.11762599,-0.85131007
1323442295.55319405,-0.58065951,0.11629096,-0.85313988
1323442295.60564566,-0.58026463,0.12005010,-0.85263097
1323442295.65352726,-0.58164746,0.11799058,-0.85192132
1323442295.70459890,-0.58081537,0.12054650,-0.85305053
1323442295.75286722,-0.58151901,0.11835390,-0.85191685
1323442295.80548763,-0.57981515,0.12052073,-0.85158122
1323442295.85252094,-0.58123797,0.11883307,-0.85151917
1323442295.90449619,-0.58137637,0.12077849,-0.85141224
1323442295.96459270,-0.58173662,0.11931955,-0.85103607
1323442296.00151587,-0.58288950,0.11859884,-0.85070896
1323442296.05252004,-0.58082408,0.11712509,-0.85135549
1323442296.10458398,-0.58033532,0.11991860,-0.85160565
1323442296.15355825,-0.58191359,0.11750857,-0.85206109
1323442296.21264267,-0.58010924,0.11980121,-0.85223496
1323442296.25351954,-0.58130854,0.12030347,-0.85256189
1323442296.30132985,-0.58150125,0.11958818,-0.85372424
1323442296.35345936,-0.58198798,0.11786342,-0.85103947
1323442296.40149045,-0.58092988,0.12030195,-0.85279804
1323442296.46533155,-0.58073264,0.11943804,-0.85175264
1323442296.50552487,-0.58215642,0.11787197,-0.85169154
1323442296.55258203,-0.58087617,0.11713503,-0.85225821
1323442296.60462594,-0.57921690,0.12028164,-0.85257477
1323442296.65352964,-0.58176273,0.11946950,-0.85373783
1323442296.70517516,-0.58179069,0.11923201,-0.85425180
1323442296.75264668,-0.58216089,0.11882056,-0.84938496
1323442296.80156422,-0.58303916,0.12069137,-0.85304588
1323442296.85353017,-0.58242440,0.11763312,-0.85183316
1323442296.90103960,-0.58031583,0.11993845,-0.85353273
1323442296.96109104,-0.58296204,0.11934114,-0.85187513
1323442297.00164628,-0.58208758,0.11761602,-0.85052907
1323442297.05355883,-0.58162522,0.11701506,-0.85165602
1323442297.10462356,-0.58201104,0.12056242,-0.85337377
1323442297.15364933,-0.58294159,0.11923940,-0.85380131
1323442297.20149040,-0.58146483,0.12067394,-0.85295880
1323442297.25366569,-0.58333063,0.11863583,-0.85381842
1323442297.30152845,-0.57975638,0.12223284,-0.85261858
1323442297.36491847,-0.58119160,0.11726946,-0.85317636
1323442297.40091777,-0.58125633,0.12126480,-0.85153764
1323442297.45350122,-0.58233219,0.11885321,-0.85235095
1323442297.50451875,-0.58129650,0.11969411,-0.85242832
1323442297.55254126,-0.58115512,0.11869587,-0.85009968
1323442297.60151458,-0.58246881,0.12055545,-0.85224217
1323442297.65291190,-0.58096892,0.12055222,-0.85344470
1323442297.70489812,-0.58091313,0.11942532,-0.85034865
1323442297.75252795,-0.58399212,0.11811137,-0.84948099
1323442297.80549860,-0.58146930,0.12225313,-0.85284185
1323442297.85351396,-0.58247083,0.11822547,-0.85029751
1323442297.90163970,-0.58234411,0.11980322,-0.85017335
1323442297.95366621,-0.58122569,0.12016626,-0.85114247
1323442298.00921273,-0.58064157,0.11820655,-0.85032487
1323442298.05263805,-0.58310163,0.11883498,-0.84982264
1323442298.10556173,-0.58179337,0.11930680,-0.84975374
1323442298.15268159,-0.58175427,0.11968715,-0.85129672
1323442298.20554376,-0.58110017,0.11992306,-0.85126233
1323442298.25367045,-0.58348501,0.11847316,-0.84971267
1323442298.30591750,-0.58006817,0.12061969,-0.84915376
1323442298.35367513,-0.58212847,0.11747885,-0.84898788
1323442298.40608311,-0.58294064,0.11945847,-0.85148919
1323442298.45272112,-0.58175445,0.11774461,-0.85153985
1323442298.50471258,-0.58012384,0.12208725,-0.84993857
1323442298.56552744,-0.58154118,0.11903946,-0.84768134
1323442298.60627484,-0.58258134,0.12103899,-0.85186630
1323442298.65347481,-0.58051038,0.11820510,-0.85031766
